LiveATC.Net - Listen to live air traffic control over the Internet!


ICAO: RCTP  IATA: TPE   Airport: Taiwan Taoyuan International Airport
City: Taipei
Country: Taiwan   Continent: Asia
RCTP METAR Weather: RCTP 161900Z 04013KT 9999 -RA FEW004 BKN008 BKN015 21/20 Q1012 NOSIG RMK A2991 RA AMT 4.0MM
RCTP Flight Activity (FlightAware)

RCTP Approach
Feed Status: DOWN
Last heard on: 2018-10-08 13:44:03 (8 days 5 hours 48 minutes ago)
RCTP Approach Audio Archives
FacilityFrequency
Emergency/Guard121.500
Taipei Approach125.100
Taipei Approach125.600
Taipei Approach128.500

RCTP Tower
Feed Status: DOWN
Last heard on: 2018-10-08 13:44:03 (8 days 5 hours 48 minutes ago)
RCTP Tower Audio Archives
FacilityFrequency
Taipei Tower118.700

NOTICE

Unauthorized use prohibited. See LiveATC.net Terms of Service


Find LiveATC Audio Streams


Airport/ARTCC Code

Frequency Search
(e.g., 124.400, 128.75)
Site-wide search
 


Browse LiveATC Feeds
Top 50 LiveATC Feeds
Bad Weather Areas

LiveATC FAQ
Offer a LiveATC Feed
Contact LiveATC.net
Press Inquiries

LiveATC on iPhone
LiveATC on Android

Windows Phone
Windows 8/10

LiveATC Mobile
(Mobile browser)

ATC Audio Archives
Interesting Recordings

LiveATC Forums


Home Page
About LiveATC.net
Make a Donation
Terms of Use
Privacy Policy

Canadian Air Freqs

AIRMETs/SIGMETs

FAA Airport Status
Nat'l Airspace Status
Arrival Demand Charts


Server Software By:
Icecast.org
Liquidsoap